Boom en verlichtingspaal belanden op auto door storm

StormCell - Onweer anders bekeken

Welkom op Stormcell.be, dé website waar onweer al sinds 2011 anders wordt bekeken.

Op onze site vindt de bezoeker duidelijke weermodellen, data van het StormCell weerstation in regio Ninove (België) én kan men het onweer live volgen via lightningmaps.org.

We beschikken over een Facebook pagina waar weer gerelateerde berichten worden gedeeld en waar we zelf ook waarschuwingen voor onweer of noodweer uitsturen indien nodig.

U leest het goed: indien nodig, dus geen onheilspellende berichten als de storm of het onweer slechts in een glas water zal woeden. We zijn niet uit op sensatie of het zaaien van angst. We bekijken het onweer met klare kijk op de feiten. 

[Source: ADDS]
METAR
EBBR 250150Z 25010KT CAVOK 06/02 Q1023 NOSIG =
EBBR 242320Z 2500/2606 27008KT CAVOK PROB30 TEMPO 2503/2510 SHRA BECMG 2508/2510 33015G28KT BECMG 2516/2518 34011KT
TAF
EBBR 242320Z 2500/2606 27008KT CAVOK PROB30 TEMPO 2503/2510 SHRA BECMG 2508/2510 33015G28KT BECMG 2516/2518 34011KT =

Visweer Vlissingen

StormCell is een non profit organisatie zonder oogmerk tot sensatie